Regional Weather Roundup
Issued by NWS

Home | Current Version | Previous Version | Text Only | Print | Product List | Glossary On
Versions: 1 2 3 4 5 6 7 8 9 10 11 12 13 14 15 16 17 18 19 20 21 22 23 24 25 26 27 28 29 30 31 32 33 34 35 36 37 38 39 40 41 42 43 44 45 46 47 48 49 50
000
ASUS43 KMPX 171601
RWRMN
WEATHER ROUNDUP FOR MINNESOTA
NATIONAL WEATHER SERVICE TWIN CITIES/CHANHASSEN MN
1100 AM CDT WED SEP 17 2014


NOTE: "FAIR" INDICATES FEW OR NO CLOUDS BELOW 12,000 FEET WITH NO
SIGNIFICANT WEATHER AND/OR OBSTRUCTIONS TO VISIBILITY. N/A MEANS
CURRENT SKY AND/OR WEATHER CONDITIONS ARE NOT AVAILABLE.

MNZ060>063-068>070-171700-
   Twin Cities Metro

CITY           SKY/WX    TMP DP  RH WIND       PRES   REMARKS
TWIN CITIES    MOSUNNY   65  50  58 CALM      29.96R
ST PAUL        SUNNY     64  53  67 SE5       29.96S
CRYSTAL        PTSUNNY   66  50  56 CALM      29.94S
BLAINE         MOSUNNY   66  54  63 S3        29.95S
LAKEVILLE      SUNNY     64  54  68 SW3       29.96S
EDEN PRAIRIE   MOSUNNY   65  52  62 SW3       29.95R
SOUTH ST PAUL  SUNNY     65  51  61 SW5       29.96S
LAKE ELMO      FAIR      63  54  72 SE5       29.97S
$$
MNZ001>005-007-008-013>017-022>024-027-028-171700-
   Northwest Minnesota

CITY           SKY/WX    TMP DP  RH WIND       PRES   REMARKS
BEMIDJI        SUNNY     62  48  59 N3        29.96R
HALLOCK          N/A     54  48  82 NE12      30.02R
ROSEAU         CLOUDY    52  45  76 NE16      30.02R
WARROAD        CLOUDY    48  45  87 NE12G20   30.03R
THIEF RVR FALL MOSUNNY   57  50  77 NE13      29.98R
CROOKSTON      SUNNY     59  46  63 N7        29.97S
FOSSTON        SUNNY     64  46  52 N7        29.96R
DETROIT LAKES  SUNNY     63  52  67 NE5       29.97R
MOORHEAD       SUNNY     63  54  72 CALM      29.96S
PARK RAPIDS    SUNNY     61  49  64 N5        29.95S
MAHNOMEN       FAIR      61  50  66 CALM      29.95S
$$
MNZ006-009>011-018-025>026-171700-
   North Central Minnesota

CITY           SKY/WX    TMP DP  RH WIND       PRES   REMARKS
BAUDETTE       PTSUNNY   54  44  69 E8        30.01R
FLAG ISLAND    CLOUDY    45  39  81 NE12      30.04R
WASKISH        MOSUNNY   55  50  82 CALM      29.98R
BIG FORK       MOSUNNY   57  46  67 N5        29.96R
LONGVILLE      SUNNY     63  50  63 CALM      29.95R
GRAND RAPIDS   SUNNY     61  46  59 W3        29.95R
CRANE LAKE     MOSUNNY   52  45  76 N7        30.00R
ORR            CLOUDY    54  45  71 CALM      29.95R
COOK           CLOUDY    55  48  76 N3        29.96R
WALKER         FAIR      59  48  67 CALM      29.95S
$$
MNZ012-019>021-037-171700-
   Northeast Minnesota

CITY           SKY/WX    TMP DP  RH WIND       PRES   REMARKS
ELY            CLOUDY    54  48  82 NE6       29.95S
HIBBING        CLOUDY    62  47  57 N3        29.94R
EVELETH        MOSUNNY   59  46  63 N7        29.95R
DULUTH HARBOR  SUNNY     61  50  67 CALM      29.95R
TWO HARBORS    MOSUNNY   63  50  63 CALM      29.91S
SILVER BAY     MOSUNNY   52  50  93 NE10      29.95R
GRAND MARAIS     N/A     45  41  86 E16G22    30.00R
G MARAIS ARPRT CLOUDY    39  37  93 NE10      29.98R FOG
$$
MNZ029>031-032-039>041-046>048-054>057-064-171700-
   West Central Minnesota

CITY           SKY/WX    TMP DP  RH WIND       PRES   REMARKS
FERGUS FALLS   SUNNY     63  52  67 N5        29.95R
WHEATON        SUNNY     57  52  82 NW3       29.96S
MORRIS         SUNNY     64  54  68 N5        29.93S
ALEXANDRIA     SUNNY     66  54  65 VRB5      29.95S
ELBOW LAKE     FAIR      62  53  73 CALM      29.95R
WADENA         SUNNY     63  54  72 NE7       29.95R
GLENWOOD       SUNNY     66  55  68 NE6       29.95S
APPLETON       SUNNY     68  54  60 N6        29.94R
BENSON         SUNNY     64  54  68 NE7       29.94S
ORTONVILLE     SUNNY     64  54  68 N7        29.95R
MADISON        SUNNY     66  57  72 N8        29.95R
WILLMAR        FAIR      64  52  63 N3        29.95S
$$
MNZ033>034-036-042>043-049>051-058-059-171700-
   Central Minnesota

CITY           SKY/WX    TMP DP  RH WIND       PRES   REMARKS
ST CLOUD       SUNNY     66  52  60 SW3       29.95S
SAUK CENTRE    FAIR      64  53  68 CALM      29.95S
PAYNESVILLE    SUNNY     62  52  71 CALM      29.95S
AITKIN         SUNNY     66  54  63 CALM      29.95R
PINE RIVER     SUNNY     61  52  72 N7        29.99R
BRAINERD       SUNNY     62  51  67 N7        29.96R
STAPLES        SUNNY     61  50  67 N5        29.95S
LONG PRAIRIE   FAIR      63  54  72 N5        29.95S
LITTLE FALLS   SUNNY     63  50  63 N3        29.95R
LITCHFIELD     SUNNY     66  55  68 N3        29.95S
BUFFALO        PTSUNNY   62  51  67 CALM      29.96S
MAPLE LAKE     MOSUNNY   64  55  72 CALM      29.96S
$$
MNZ037-044-045-052-053-171700-
   East Central Minnesota

CITY           SKY/WX    TMP DP  RH WIND       PRES   REMARKS
MORA           SUNNY     63  52  67 CALM      29.97S
CAMBRIDGE      SUNNY     66  52  59 CALM      29.93S
RUSH CITY      SUNNY     63  52  66 CALM      29.95S
HINCKLEY       FAIR      63  54  72 CALM      29.95S
CLOQUET        SUNNY     63  46  55 W5        29.95S
MCGREGOR       SUNNY     63  52  67 CALM      29.96S
$$
MNZ071>073-080-081-089-090-097-098-171700-
   Southwest Minnesota

CITY           SKY/WX    TMP DP  RH WIND       PRES   REMARKS
MONTEVIDEO     SUNNY     70  55  60 NE5       29.95S
GRANITE FALLS  SUNNY     64  54  69 NE5       29.95S
CANBY          SUNNY     64  55  72 N7        29.96R
MARSHALL       SUNNY     64  54  68 N7        29.94S
REDWOOD FALLS  SUNNY     66  53  63 NW5       29.94S
OLIVIA         SUNNY     68  54  60 N5        29.93S
PIPESTONE      SUNNY     64  55  72 NE6       29.94S
WINDOM         SUNNY     66  54  63 CALM      29.95S
WORTHINGTON    SUNNY     64  54  68 SW3       29.95S
JACKSON        PTSUNNY   64  52  63 SW5       29.96S
TRACY          SUNNY     66  56  69 CALM      29.95S
SLAYTON        SUNNY     64  54  70 CALM      29.96S
$$
MNZ065>067-074>077-082>085-091>093-171700-
   South Central Minnesota

CITY           SKY/WX    TMP DP  RH WIND       PRES   REMARKS
MANKATO        SUNNY     64  50  59 S3        29.96S
NEW ULM        SUNNY     64  55  72 CALM      29.95R
ST JAMES       SUNNY     66  54  63 SW5       29.96S
FAIRMONT       CLOUDY    64  48  55 SW5       29.96R
GLENCOE        SUNNY     65  51  59 CALM      29.95S
FARIBAULT      MOSUNNY   68  48  49 S3        29.97S
OWATONNA       SUNNY     64  52  63 SW3       29.97S
WASECA         PTSUNNY   63  46  55 SW7       29.98S
ALBERT LEA     MOSUNNY   64  52  63 SW5       29.97R
$$
MNZ078>079-086>088-094>096-171700-
   Southeast Minnesota

CITY           SKY/WX    TMP DP  RH WIND       PRES   REMARKS
ROCHESTER      MOSUNNY   63  51  65 S6        30.00R
RED WING       CLOUDY    64  50  59 CALM      29.96S
STANTON        SUNNY     65  52  61 W3        29.95S
DODGE CENTER   MOSUNNY   64  52  63 SW5       29.98S
WINONA         CLOUDY    61  52  72 SE3       29.99S
AUSTIN         CLOUDY    61  52  72 S5        29.98R
PRESTON        MOSUNNY   61  55  79 SW6       30.00S
$$
ABBREVIATIONS USED IN REMARKS
   TC - TEMPERATURES IN CELSIUS
  WCI - WIND CHILL INDEX
   HX - HEAT INDEX
  VSB - VISIBILITY
$$



USA.gov is the U.S. government's official web portal to all federal, state and local government web resources and services.